TRA1914 EHRD-EKBI

Flight info

Callsign TRA1914
Flight time N/A
Altitude 31000
Route ANDIK N873 MIKRO
Aircraft B38M/M-SDE1FGHILORVWXY/HB1

Departure

Time N/A
Airport Rotterdam The Hague Airport (EHRD)

Arrival

Time 2026-04-30 18:16
Airport Billund Airport (EKBI)
Time Latitude Longitude Altitude Speed Heading
2026-04-30 17:39 53.11867 5.87912 31020 ft 453 kts 31°
2026-04-30 17:41 53.33822 6.08709 31369 ft 455 kts 31°
2026-04-30 17:42 53.39317 6.13952 31384 ft 455 kts 31°
2026-04-30 17:43 53.53030 6.27106 31391 ft 453 kts 30°
2026-04-30 17:44 53.69401 6.42943 31401 ft 453 kts 30°
2026-04-30 17:47 53.93952 6.66961 31414 ft 454 kts 30°
2026-04-30 17:48 54.13079 6.85903 31424 ft 460 kts 30°
2026-04-30 17:49 54.24056 6.96866 31185 ft 449 kts 30°
2026-04-30 17:50 54.34776 7.07640 29125 ft 449 kts 30°
2026-04-30 17:51 54.41813 7.18123 27636 ft 453 kts 47°
2026-04-30 17:52 54.48239 7.29998 26515 ft 455 kts 47°
2026-04-30 17:53 54.59024 7.49892 24722 ft 450 kts 47°
2026-04-30 17:54 54.67431 7.65512 23260 ft 440 kts 47°
2026-04-30 17:55 54.75642 7.80868 21718 ft 430 kts 48°
2026-04-30 17:56 54.83662 7.95964 20238 ft 421 kts 48°
2026-04-30 17:57 54.89533 8.07075 19188 ft 415 kts 49°
2026-04-30 17:58 54.95212 8.18271 18076 ft 408 kts 51°
2026-04-30 17:59 55.02697 8.32885 17047 ft 402 kts 49°
2026-04-30 18:00 55.10145 8.47137 16069 ft 396 kts 49°
2026-04-30 18:00 55.15671 8.57755 15355 ft 391 kts 49°
2026-04-30 18:01 55.19319 8.64790 14868 ft 389 kts 49°
2026-04-30 18:02 55.24710 8.75224 14171 ft 386 kts 49°
2026-04-30 18:02 55.30071 8.85645 13470 ft 382 kts 49°
2026-04-30 18:03 55.35348 8.95949 13018 ft 364 kts 49°
2026-04-30 18:04 55.40082 9.05231 11852 ft 319 kts 49°
2026-04-30 18:05 55.45515 9.15929 10558 ft 277 kts 50°
2026-04-30 18:06 55.50545 9.25871 8928 ft 266 kts 50°
2026-04-30 18:07 55.55337 9.35385 7103 ft 253 kts 50°
2026-04-30 18:08 55.58808 9.42290 5639 ft 248 kts 50°
2026-04-30 18:09 55.63324 9.51307 3743 ft 245 kts 49°
2026-04-30 18:10 55.68971 9.56657 3028 ft 241 kts
2026-04-30 18:11 55.74191 9.53474 3032 ft 202 kts 304°
2026-04-30 18:11 55.75026 9.46710 2961 ft 185 kts 267°
2026-04-30 18:12 55.74795 9.39848 2656 ft 184 kts 267°
2026-04-30 18:13 55.74666 9.35785 2290 ft 147 kts 268°
2026-04-30 18:13 55.74522 9.31078 1755 ft 142 kts 269°
2026-04-30 18:14 55.74397 9.27013 1318 ft 142 kts 269°
2026-04-30 18:15 55.74234 9.21837 724 ft 140 kts 268°
2026-04-30 18:15 55.74081 9.16665 251 ft 124 kts 267°
2026-04-30 18:16 55.74025 9.14859 248 ft 52 kts 267°
2026-04-30 18:16 55.74107 9.14492 244 ft 0 kts 358°
2026-04-30 18:17 55.74120 9.14492 244 ft 3 kts 358°
2026-04-30 18:17 55.74138 9.14491 244 ft 0 kts 357°
2026-04-30 18:17 55.74162 9.14489 244 ft 9 kts 357°
2026-04-30 18:18 55.74239 9.14480 244 ft 12 kts 356°
2026-04-30 18:18 55.74328 9.14467 244 ft 14 kts 355°
2026-04-30 18:18 55.74376 9.14460 244 ft 1 kts 355°
2026-04-30 18:18 55.74393 9.14461 244 ft 4 kts
2026-04-30 18:19 55.74435 9.14506 244 ft 9 kts 60°
2026-04-30 18:19 55.74445 9.14613 244 ft 5 kts 86°
2026-04-30 18:19 55.74447 9.14704 244 ft 11 kts 86°
2026-04-30 18:19 55.74452 9.14818 244 ft 7 kts 85°
2026-04-30 18:20 55.74457 9.14883 244 ft 2 kts 57°
2026-04-30 18:20 55.74492 9.14885 244 ft 9 kts 355°
2026-04-30 18:20 55.74530 9.14881 244 ft 4 kts 358°
2026-04-30 18:20 55.74536 9.14881 244 ft 0 kts 359°